[[{"header":{"parameterUnit":"m.s-1","parameterCategory":1,"la1":30.2991,"la2":30.254,"lo1":-89.0895,"lo2":-89.0444,"dy":0.0017,"dx":0.0017,"nx":28,"ny":28,"refTime":"2026-01-05T03:00:00:Z","depth":0,"parameterNumber":2,"parameterNumberName":"U-component_of_WINDS"},"data":[0,0,0,0,0,0,0,0,0,0,0,0,0,0,0,0,0,0,0,0,0,0,0,0,0,0,0,0,0,0,0,0,0,0,0,0,0,0,0,0,0,0,0,0,0,0,0,0,0,0,0,0,0,0,0,0,0,0,-1.2308,-1.2308,0,-1.2316,-1.2316,-1.2316,-1.2264,-1.2263,-1.2261,-1.226,-1.2268,-1.227,-1.2271,0,0,0,0,0,0,0,0,0,0,0,0,0,-1.2248,-1.2249,-1.2308,-1.2308,-1.2308,-1.2316,-1.2316,-1.2316,-1.2264,-1.2263,-1.2261,-1.2259,-1.2268,-1.227,-1.2272,0,0,0,0,0,0,0,0,0,0,0,0,0,-1.2267,-1.225,-1.2308,-1.2283,-1.2281,-1.2316,-1.2316,-1.2316,-1.2265,-1.2262,-1.226,-1.2258,-1.2267,-1.227,-1.2272,-1.2331,0,0,-1.2279,-1.228,0,0,0,0,0,0,0,0,-1.2266,-1.2269,-1.2287,-1.2285,-1.2283,-1.2287,-1.2298,-1.2321,-1.2265,-1.2271,-1.226,-1.2257,-1.2276,-1.2278,-1.2284,-1.2331,-1.2332,-1.2279,-1.2281,-1.2282,-1.2283,0,0,0,0,0,0,0,-1.2264,-1.2268,-1.2311,-1.2287,-1.2284,-1.2272,-1.2272,-1.2302,-1.2286,-1.227,-1.2266,-1.2268,-1.2275,-1.2282,-1.2284,-1.2332,-1.2279,-1.2282,-1.2283,-1.2284,-1.2427,-1.2429,0,0,0,0,0,0,-1.2266,-1.2268,-1.2311,-1.2311,-1.2268,-1.2275,-1.2275,-1.2288,-1.2285,-1.2283,-1.227,-1.2266,-1.2279,-1.2281,-1.2284,-1.2352,-1.2282,-1.2284,-1.2286,-1.2425,-1.2428,-1.243,0,0,0,0,0,0,-1.2265,-1.2271,-1.231,-1.2288,-1.2292,-1.2278,-1.2293,-1.2289,-1.2296,-1.2285,-1.2282,-1.228,-1.2277,-1.2281,-1.2319,-1.2352,-1.2285,-1.2287,-1.2422,-1.2426,-1.2429,-1.2489,0,0,0,0,0,0,-1.2264,-1.2271,-1.2293,-1.2289,-1.2294,-1.2346,-1.2295,-1.2291,-1.23,-1.2295,-1.2294,-1.2292,-1.2276,-1.2316,-1.2322,-1.2354,-1.2289,-1.2419,-1.2424,-1.2428,-1.2484,-1.2495,-1.2503,0,0,0,0,0,-1.2262,-1.231,-1.2294,-1.23,-1.2321,-1.2348,-1.235,-1.2331,-1.2303,-1.2325,-1.2318,-1.2292,-1.2348,-1.2321,-1.2327,-1.236,-1.2417,-1.2422,-1.2428,-1.248,-1.2493,-1.2503,0,0,0,0,0,0,-1.2318,-1.2309,-1.2291,-1.234,-1.2345,-1.2339,-1.2366,-1.2345,-1.2358,-1.2352,-1.2327,-1.2328,-1.237,-1.2369,-1.2339,-1.2416,-1.2377,-1.2384,-1.2415,-1.2427,-1.2436,-1.2435,-1.2291,0,0,0,0,0,-1.2336,-1.2358,-1.2349,-1.2392,-1.2396,-1.2381,-1.2392,-1.2376,-1.238,-1.2382,-1.2378,-1.2383,-1.2402,-1.2415,-1.2431,-1.2485,-1.2483,-1.251,-1.252,-1.2528,-1.2533,-1.256,-1.2572,-1.2448,-1.2448,-1.2448,0,0,-1.2373,-1.2371,-1.2386,-1.2404,-1.2406,-1.2429,-1.2383,-1.241,-1.2427,-1.2386,-1.2422,-1.242,-1.2424,-1.247,-1.249,-1.247,-1.2568,-1.2534,-1.2541,-1.2542,-1.2567,-1.2579,-1.2589,-1.2451,-1.2451,-1.245,0,0,-1.2452,-1.2453,-1.2489,-1.2492,-1.2496,-1.2486,-1.2494,-1.2492,-1.2488,-1.2524,-1.2494,-1.2514,-1.2547,-1.2551,-1.2557,-1.2639,-1.2615,-1.2645,-1.2694,-1.2721,-1.273,-1.2739,-1.2767,-1.2777,-1.2651,-1.2651,-1.2651,0,-1.2498,-1.2531,-1.251,-1.2539,-1.2547,-1.2512,-1.2548,-1.2552,-1.2561,-1.2568,-1.2545,-1.2585,-1.2586,-1.2632,-1.2652,-1.2659,-1.2667,-1.2644,-1.2731,-1.2739,-1.2747,-1.2773,-1.2784,-1.2655,-1.2654,-1.2654,-1.2654,0,-1.2587,-1.2611,-1.2639,-1.2649,-1.266,-1.2693,-1.2676,-1.2691,-1.2675,-1.2667,-1.2703,-1.2703,-1.2718,-1.2729,-1.2713,-1.2773,-1.276,-1.2735,-1.2695,-1.2762,-1.2787,-1.2797,-1.266,-1.2659,-1.2658,-1.2657,0,0,-1.27,-1.2698,-1.2708,-1.2712,-1.2714,-1.2732,-1.2763,-1.2778,-1.279,-1.2798,-1.2823,-1.2851,-1.2828,-1.2835,-1.282,-1.2844,-1.2907,-1.2816,-1.2815,-1.2832,-1.2972,-1.299,-1.3002,-1.2892,-1.2894,-1.2895,-1.2971,0,-1.2777,-1.2828,-1.281,-1.2863,-1.2885,-1.2852,-1.2879,-1.2883,-1.2876,-1.2894,-1.2887,-1.2907,-1.2875,-1.2879,-1.2902,-1.2895,-1.2935,-1.289,-1.2914,-1.2915,-1.2912,-1.3014,-1.3034,-1.3105,-1.298,-1.2982,-1.2983,0,-1.2872,-1.2884,-1.2939,-1.2936,-1.2945,-1.2969,-1.2981,-1.2998,-1.3002,-1.2996,-1.3004,-1.2984,-1.3014,-1.2975,-1.3016,-1.2985,-1.2995,-1.2993,-1.2995,-1.2996,-1.2952,-1.3016,-1.3127,-1.3137,-1.2998,-1.2997,-1.2996,0,-1.2948,-1.2977,-1.3013,-1.3018,-1.3016,-1.3034,-1.3034,-1.3036,-1.3046,-1.3057,-1.3063,-1.3078,-1.3086,-1.3097,-1.3082,-1.3055,-1.3124,-1.3084,-1.3119,-1.312,-1.3134,-1.3133,-1.3246,-1.3143,-1.3142,-1.3142,-1.3142,0,-1.3035,-1.3069,-1.3047,-1.307,-1.3107,-1.3087,-1.3124,-1.3121,-1.3123,-1.3144,-1.3117,-1.3138,-1.3116,-1.3135,-1.3123,-1.3158,-1.3162,-1.3157,-1.3153,-1.3159,-1.3159,-1.3163,-1.3157,-1.3145,-1.3144,-1.3144,-1.3143,0,-1.3125,-1.3112,-1.3149,-1.3145,-1.3145,-1.3172,-1.3169,-1.3189,-1.3181,-1.3208,-1.3213,-1.3201,-1.3221,-1.3207,-1.3227,-1.3219,-1.3264,-1.3254,-1.3263,-1.326,-1.3295,-1.3291,-1.3414,-1.3428,-1.3316,-1.3318,-1.3319,0,-1.318,-1.3206,-1.3204,-1.3216,-1.3218,-1.3238,-1.3248,-1.3229,-1.3241,-1.3247,-1.3267,-1.3285,-1.3298,-1.3331,-1.3324,-1.334,-1.3329,-1.3371,-1.3331,-1.3335,-1.3328,-1.3326,-1.3328,-1.3378,-1.338,-1.3381,-1.3382,0,-1.3279,-1.3271,-1.3287,-1.33,-1.3313,-1.3323,-1.333,-1.3342,-1.3322,-1.3337,-1.3357,-1.3367,-1.3388,-1.3406,-1.3418,-1.3419,-1.3397,-1.3394,-1.3403,-1.3408,-1.3412,-1.3409,-1.3283,-1.3391,-1.339,-1.339,-1.3389,-1.3389,-1.3352,-1.3373,-1.3376,-1.3394,-1.3397,-1.3405,-1.3424,-1.3418,-1.3435,-1.3449,-1.3438,-1.3462,-1.3465,-1.3479,-1.3483,-1.3501,-1.3484,-1.3497,-1.35,-1.3503,-1.3507,-1.341,-1.3503,-1.3503,-1.3503,-1.3503,-1.3502,0,-1.3449,-1.3449,-1.3466,-1.3477,-1.3491,-1.347,-1.3477,-1.349,-1.3512,-1.3517,-1.353,-1.3553,-1.357,-1.3565,-1.358,-1.3596,-1.3586,-1.3601,-1.3599,-1.3599,-1.3522,-1.3513,-1.3608,-1.3608,-1.3608,-1.3608,-1.3608,-1.3608,-1.3501,-1.3535,-1.3528,-1.3563,-1.3563,-1.3586,-1.3592,-1.3599,-1.3602,-1.3629,-1.3643,-1.364,-1.364,-1.3655,-1.367,-1.3668,-1.3675,-1.3692,-1.3686,-1.3615,-1.3604,-1.3594,-1.3585,-1.3694,-1.3694,-1.3761,-1.3762,-1.3762]},{"header":{"parameterUnit":"m.s-1","parameterCategory":1,"la1":30.2991,"la2":30.254,"lo1":-89.0895,"lo2":-89.0444,"dy":0.0017,"dx":0.0017,"nx":28,"ny":28,"refTime":"2026-01-05T03:00:00:Z","depth":0,"parameterNumber":3,"parameterNumberName":"V-component_of_WINDS"},"data":[0,0,0,0,0,0,0,0,0,0,0,0,0,0,0,0,0,0,0,0,0,0,0,0,0,0,0,0,0,0,0,0,0,0,0,0,0,0,0,0,0,0,0,0,0,0,0,0,0,0,0,0,0,0,0,0,0,0,1.8103,1.8104,0,1.8173,1.8174,1.8175,1.8248,1.8249,1.825,1.8251,1.8318,1.8319,1.832,0,0,0,0,0,0,0,0,0,0,0,0,0,1.803,1.8031,1.8103,1.8104,1.8105,1.8173,1.8174,1.8175,1.8248,1.8249,1.825,1.8251,1.8318,1.8319,1.832,0,0,0,0,0,0,0,0,0,0,0,0,0,1.8077,1.8031,1.8103,1.815,1.8155,1.8173,1.8174,1.8175,1.8248,1.8249,1.8251,1.8252,1.8318,1.8319,1.832,1.8297,0,0,1.8324,1.8325,0,0,0,0,0,0,0,0,1.8074,1.8079,1.8142,1.8147,1.8152,1.8204,1.8173,1.8216,1.8247,1.8212,1.8251,1.8253,1.8279,1.8283,1.8293,1.83,1.8303,1.8324,1.8325,1.8325,1.8326,0,0,0,0,0,0,0,1.8071,1.8077,1.8131,1.8143,1.8149,1.8166,1.8175,1.8182,1.8236,1.8215,1.8221,1.8228,1.8282,1.8291,1.8295,1.8304,1.8324,1.8325,1.8326,1.8326,1.8298,1.8297,0,0,0,0,0,0,1.8061,1.8074,1.8129,1.8133,1.8116,1.8166,1.8176,1.8185,1.8236,1.8245,1.8227,1.8231,1.8288,1.8293,1.8297,1.8276,1.8325,1.8327,1.8327,1.83,1.8298,1.8296,0,0,0,0,0,0,1.8059,1.8065,1.8126,1.8105,1.8114,1.8166,1.8176,1.8186,1.8196,1.8245,1.8254,1.8227,1.829,1.8296,1.8298,1.8279,1.8327,1.8328,1.8302,1.8299,1.8297,1.8231,0,0,0,0,0,0,1.8057,1.8064,1.8056,1.8104,1.8115,1.8125,1.8175,1.8186,1.8198,1.8205,1.8248,1.8256,1.8292,1.8295,1.8299,1.8282,1.8329,1.8303,1.8301,1.8298,1.8235,1.8226,1.8219,0,0,0,0,0,1.8054,1.8033,1.8056,1.8062,1.8107,1.8124,1.813,1.8173,1.8197,1.8189,1.8221,1.8255,1.828,1.8295,1.8299,1.8282,1.8305,1.8301,1.8298,1.8238,1.8228,1.8219,0,0,0,0,0,0,1.798,1.804,1.8066,1.8061,1.8087,1.8136,1.8128,1.816,1.8179,1.8184,1.8235,1.8244,1.824,1.8261,1.8276,1.8264,1.8297,1.8295,1.825,1.8241,1.8233,1.8229,1.833,0,0,0,0,0,1.7963,1.7974,1.8026,1.8016,1.8028,1.8076,1.8085,1.8116,1.8144,1.8155,1.8187,1.8213,1.8227,1.8235,1.825,1.8238,1.8249,1.8228,1.8221,1.8214,1.8211,1.8208,1.82,1.8285,1.8285,1.8285,0,0,1.7929,1.7963,1.7966,1.8002,1.8026,1.8035,1.8085,1.8091,1.8099,1.8156,1.8161,1.8185,1.8216,1.8212,1.8211,1.8229,1.819,1.821,1.8204,1.8205,1.8204,1.8196,1.8189,1.8283,1.8283,1.8284,0,0,1.7871,1.7897,1.7894,1.7917,1.7954,1.7986,1.7985,1.803,1.8049,1.8055,1.8098,1.8107,1.8129,1.8151,1.8165,1.8117,1.8149,1.812,1.808,1.8076,1.807,1.8064,1.8048,1.8042,1.8117,1.8117,1.8117,0,1.7823,1.784,1.7887,1.7892,1.7907,1.7961,1.7958,1.7978,1.8016,1.8025,1.8045,1.8077,1.8101,1.8103,1.8092,1.8101,1.8101,1.8116,1.8067,1.8062,1.8057,1.8043,1.8037,1.8113,1.8114,1.8114,1.8114,0,1.778,1.7791,1.7783,1.7822,1.7835,1.7836,1.7883,1.7891,1.792,1.795,1.7956,1.7988,1.8012,1.8014,1.8042,1.802,1.8031,1.8058,1.8093,1.8045,1.8032,1.8027,1.8108,1.8109,1.8111,1.8111,0,0,1.7677,1.7744,1.774,1.7759,1.7804,1.7813,1.7816,1.7841,1.7848,1.7873,1.7877,1.7896,1.7922,1.7938,1.7969,1.7965,1.7927,1.7993,1.7995,1.7981,1.7907,1.7887,1.788,1.7948,1.7947,1.7947,1.7905,0,1.7629,1.764,1.7683,1.768,1.7692,1.7744,1.7746,1.7774,1.7802,1.7815,1.7845,1.7859,1.7891,1.7901,1.79,1.7932,1.7913,1.7935,1.7953,1.7953,1.7945,1.7873,1.7852,1.7811,1.79,1.7899,1.7899,0,1.7573,1.7597,1.7597,1.7643,1.765,1.7652,1.7679,1.7691,1.7723,1.7744,1.7762,1.7797,1.7803,1.7835,1.7844,1.7859,1.7868,1.7885,1.7884,1.7889,1.7924,1.7877,1.7799,1.7793,1.7891,1.7892,1.7892,0,1.7501,1.7533,1.7537,1.7552,1.7605,1.7606,1.7628,1.7662,1.7675,1.7698,1.7707,1.773,1.7743,1.7759,1.78,1.7819,1.7805,1.784,1.7822,1.7821,1.7818,1.7818,1.7742,1.7821,1.7821,1.7821,1.7822,0,1.7443,1.7441,1.7506,1.7509,1.7508,1.7557,1.7555,1.7582,1.7612,1.7621,1.7666,1.7672,1.7725,1.7737,1.7769,1.7772,1.7777,1.7794,1.7803,1.7791,1.7789,1.7799,1.7804,1.782,1.782,1.7821,1.7821,0,1.7362,1.7406,1.7415,1.7466,1.7478,1.7476,1.7519,1.7524,1.7555,1.7565,1.757,1.7619,1.7636,1.7678,1.7705,1.7727,1.7723,1.7737,1.7713,1.7718,1.7699,1.7701,1.7628,1.7622,1.7703,1.7702,1.7702,0,1.7323,1.7324,1.7375,1.7385,1.7406,1.7421,1.7436,1.7484,1.7496,1.7534,1.7534,1.7555,1.7576,1.7601,1.7638,1.766,1.7676,1.7649,1.768,1.7669,1.7678,1.7678,1.7679,1.7643,1.7641,1.764,1.764,0,1.725,1.7272,1.7292,1.7319,1.7335,1.7359,1.7384,1.739,1.7444,1.7456,1.7475,1.7491,1.7521,1.7542,1.7569,1.7591,1.7625,1.763,1.7627,1.7616,1.7603,1.7612,1.7696,1.7631,1.7632,1.7633,1.7633,1.7634,1.7191,1.7194,1.7232,1.7252,1.7277,1.7301,1.7308,1.7341,1.7359,1.7388,1.7415,1.7432,1.7465,1.7507,1.7526,1.754,1.7557,1.7553,1.7552,1.7551,1.7547,1.7599,1.7545,1.7545,1.7546,1.7546,1.7546,0,1.7121,1.7149,1.7167,1.7203,1.722,1.7251,1.7281,1.7293,1.7308,1.7337,1.7356,1.7379,1.74,1.7439,1.7463,1.7467,1.7483,1.7472,1.7473,1.7478,1.7529,1.753,1.7459,1.7459,1.7459,1.7459,1.7459,1.7459,1.7088,1.7096,1.7122,1.7143,1.717,1.7189,1.7204,1.7226,1.725,1.7274,1.7293,1.7319,1.7352,1.7379,1.7399,1.741,1.7418,1.7402,1.7418,1.7465,1.7474,1.7482,1.7483,1.7403,1.7403,1.7366,1.7366,1.7365]}]]